User: anonymous   Login
Location: Northam
(31.6525°S, 116.6655°E)
Time: 11:21:38
(UTC+08:00)
Language:

A-11 Canister half - Orbit

View from above orbital plane
View from above orbital plane
View from above satellite
View from above satellite

Ground track
Ground track

The orbit data is extracted from the following two-line orbital elements,

1 00051U 60009C   21163.49329248 -.00000084  00000-0  13345-4 0  9998
2 00051  47.2135 313.5490 0108241 153.2487 207.3938 12.18276553707984
Epoch (UTC): 12 June 2021 11:50:20
Eccentricity: 0.0108241
inclination: 47.2135°
perigee height: 1513 km
apogee height: 1686 km
right ascension of ascending node: 313.5490°
argument of perigee: 153.2487°
revolutions per day: 12.18276553
mean anomaly at epoch: 207.3938°
orbit number at epoch: 70798

The dashed part of the orbit path shows where the satellite is in the earth's shadow,  

DLR